Janesville, WI

10:42 PM CST on November 22, 2017 (GMT -0600)
Rock County

Weather History for KJVL - June, 2013

Change the Weather History Date:

Saturday, June 29, 2013

  Actual Average Record
Temperature  
Mean Temperature 70 °F -  
Max Temperature 75 °F 77 °F 89 °F (2005)
Min Temperature 64 °F 58 °F 46 °F (2007)
Cooling Degree Days 4    
Growing Degree Days 20 (Base 50)    
Moisture  
Dew Point 60 °F    
Average Humidity 80    
Maximum Humidity 94    
Minimum Humidity 47    
Precipitation  
Precipitation 0.36 in - - ()
Sea Level Pressure  
Sea Level Pressure 29.69 in    
Wind  
Wind Speed 6 mph (North)    
Max Wind Speed 17 mph    
Max Gust Speed 18 mph    
Visibility 9 miles    
Events Rain , Thunderstorm    
Averages and records for this station are not official NWS values.
T = Trace of Precipitation, MM = Missing Value Source: NWS Daily Summary

Daily Weather History Graph

Daily Weather History Graph

Search for Another Location

Airport or City:

Trip Planner

Search our weather history database for the weather conditions in past years. The results will help you decide how hot, cold, wet, or windy it might be!

Date:

Astronomy

Jun. 29, 2013 Rise Set
Actual Time 5:21 AM CDT 8:37 PM CDT
Civil Twilight 4:46 AM CDT 9:12 PM CDT
Nautical Twilight 4:01 AM CDT 9:57 PM CDT
Astronomical Twilight 3:06 AM CDT 10:52 PM CDT
Moon No Moon Rise 12:43 PM CDT (6/29)
Length of Visible Light 16h 26m
Length of Day
15h 16m
Waning Gibbous, 55% of the Moon is Illuminated
Jun 29
Waning Gibbous
Jun 29
Last Quarter
Jul 8
New
Jul 15
First Quarter
Jul 22
Full

Hourly Weather History & Observations

Time (CDT) Temp. Dew Point Humidity Pressure Visibility Wind Dir Wind Speed Gust Speed Precip Events Conditions
12:15 AM 66.2 °F 62.6 °F 88% 29.64 in 10.0 mi NNW 5.8 mph - N/A   Overcast
12:35 AM 66.2 °F 62.6 °F 88% 29.63 in 10.0 mi NNW 6.9 mph - N/A   Overcast
12:55 AM 66.2 °F 62.6 °F 88% 29.63 in 10.0 mi NNW 6.9 mph - N/A   Overcast
1:15 AM 66.2 °F 60.8 °F 83% 29.63 in 10.0 mi NNW 5.8 mph - N/A   Overcast
1:35 AM 66.2 °F 60.8 °F 83% 29.63 in 10.0 mi Calm Calm - N/A   Overcast
1:55 AM 66.2 °F 62.6 °F 88% 29.63 in 10.0 mi North 3.5 mph - N/A   Overcast
2:15 AM 66.2 °F 60.8 °F 83% 29.63 in 10.0 mi NNW 3.5 mph - N/A   Overcast
2:35 AM 66.2 °F 62.6 °F 88% 29.63 in 10.0 mi NNW 3.5 mph - N/A   Overcast
2:55 AM 66.2 °F 62.6 °F 88% 29.63 in 10.0 mi NW 3.5 mph - N/A   Overcast
3:15 AM 64.4 °F 62.6 °F 94% 29.63 in 10.0 mi NNW 3.5 mph - N/A   Overcast
3:35 AM 64.4 °F 62.6 °F 94% 29.63 in 10.0 mi Calm Calm - N/A   Overcast
3:55 AM 64.4 °F 62.6 °F 94% 29.63 in 10.0 mi NNW 3.5 mph - N/A Rain Light Rain
4:15 AM 64.4 °F 62.6 °F 94% 29.63 in 10.0 mi NNW 3.5 mph - N/A   Overcast
4:35 AM 64.4 °F 60.8 °F 88% 29.63 in 2.5 mi NNW 3.5 mph - 0.35 in Rain Heavy Rain
4:55 AM 64.4 °F 62.6 °F 94% 29.64 in 7.0 mi NW 3.5 mph - 0.36 in Rain Rain
5:15 AM 64.4 °F 62.6 °F 94% 29.64 in 10.0 mi NW 3.5 mph - N/A   Overcast
5:35 AM 64.4 °F 62.6 °F 94% 29.64 in 10.0 mi NW 4.6 mph - N/A   Overcast
5:45 AM 66.2 °F 62.6 °F 88% 29.65 in 10.0 mi NNW 5.8 mph - N/A   Overcast
6:45 AM 66.2 °F 62.6 °F 88% 29.65 in 6.0 mi NNE 5.8 mph - N/A Rain Light Rain
7:45 AM 64.4 °F 62.6 °F 94% 29.65 in 3.0 mi North 6.9 mph - N/A Rain , Thunderstorm Thunderstorms and Rain
8:45 AM 64.4 °F 62.6 °F 94% 29.66 in 3.0 mi NE 6.9 mph - N/A Rain Rain
9:15 AM 64.4 °F 62.6 °F 94% 29.66 in 7.0 mi NE 5.8 mph - N/A   Overcast
9:45 AM 66.2 °F 62.6 °F 88% 29.66 in 5.0 mi NNE 3.5 mph - N/A Rain Light Rain
10:45 AM 64.4 °F 62.6 °F 94% 29.67 in 10.0 mi NE 9.2 mph - N/A   Overcast
11:45 AM 66.2 °F 64.4 °F 94% 29.68 in 10.0 mi NE 17.3 mph - N/A Rain Light Rain
12:45 PM 64.4 °F 62.6 °F 94% 29.70 in 10.0 mi NE 9.2 mph - N/A   Overcast
1:45 PM 69.8 °F 59.0 °F 68% 29.70 in 10.0 mi NE 15.0 mph - N/A   Mostly Cloudy
2:45 PM 71.6 °F 59.0 °F 64% 29.70 in 10.0 mi NE 16.1 mph - N/A   Mostly Cloudy
3:45 PM 73.4 °F 57.2 °F 57% 29.71 in 10.0 mi NNE 11.5 mph 18.4 mph N/A   Mostly Cloudy
4:45 PM 71.6 °F 55.4 °F 57% 29.72 in 10.0 mi NE 11.5 mph 17.3 mph N/A   Mostly Cloudy
5:45 PM 75.2 °F 53.6 °F 47% 29.73 in 10.0 mi NE 12.7 mph - N/A   Mostly Cloudy
6:45 PM 73.4 °F 57.2 °F 57% 29.74 in 10.0 mi North 11.5 mph 17.3 mph N/A   Overcast
7:45 PM 69.8 °F 51.8 °F 53% 29.77 in 10.0 mi NNE 8.1 mph - N/A   Mostly Cloudy
8:45 PM 68.0 °F 55.4 °F 64% 29.78 in 10.0 mi NNE 6.9 mph - N/A   Mostly Cloudy
9:15 PM 68.0 °F 55.4 °F 64% 29.78 in 10.0 mi North 3.5 mph - N/A   Mostly Cloudy
9:35 PM 66.2 °F 55.4 °F 68% 29.79 in 10.0 mi Calm Calm - N/A   Mostly Cloudy
9:55 PM 68.0 °F 57.2 °F 68% 29.80 in 10.0 mi Calm Calm - N/A   Overcast
10:15 PM 68.0 °F 59.0 °F 73% 29.81 in 10.0 mi Calm Calm - N/A   Overcast
10:35 PM 68.0 °F 57.2 °F 68% 29.81 in 10.0 mi NNE 3.5 mph - N/A   Overcast
10:55 PM 66.2 °F 55.4 °F 68% 29.81 in 10.0 mi NE 10.4 mph 16.1 mph N/A   Overcast
11:15 PM 66.2 °F 53.6 °F 64% 29.81 in 10.0 mi NNE 6.9 mph - N/A   Mostly Cloudy
11:35 PM 66.2 °F 53.6 °F 64% 29.81 in 10.0 mi NNE 8.1 mph - N/A   Overcast
11:55 PM 66.2 °F 53.6 °F 64% 29.82 in 10.0 mi NNE 6.9 mph - N/A   Overcast